This demonstration page uses our WeatherBlox Daily Observations layout. Learn more.

Left ArrowRight Arrow

Hourly Observations for April 14, 2020

Temp ( °F °C ) Dew Point ( °F °C ) Humidity (%) Winds ( mph kmh ) Pressure ( in mb ) Visibility ( mi km ) Precip ( " mm )
12:15 am 00:15 Clear 24 -4.5 5 -15.2 43 43 WNW 6 9 30.42 1030 10 16.0934 0 0
12:35 am 00:35 Clear 22 -5.3 5 -15 47 47 WNW 7 11 30.44 1031 10 16.0934 0 0
12:55 am 00:55 Clear 22 -5.8 6 -14.5 51 51 NW 7 11 30.44 1031 10 16.0934 0 0
1:15 am 01:15 Mostly Cloudy 23 -5.1 7 -14 50 50 NW 7 11 30.44 1031 10 16.0934 0 0
1:35 am 01:35 Cloudy 24 -4.5 9 -12.6 54 54 NW 5 7 30.43 1030 10 16.0934 0 0
1:55 am 01:55 Cloudy 24 -4.2 10 -12.5 53 53 WNW 5 7 30.42 1030 10 16.0934 0 0
2:15 am 02:15 Mostly Cloudy 24 -4.5 9 -12.6 54 54 NW 5 7 30.42 1030 10 16.0934 0 0
2:35 am 02:35 Partly Cloudy 23 -5.1 9 -12.9 55 55 WNW 3 6 30.43 1030 10 16.0934 0 0
2:55 am 02:55 Clear 22 -5.5 9 -12.9 56 56 WNW 3 6 30.42 1030 10 16.0934 0 0
3:15 am 03:15 Clear 22 -5.3 10 -12.5 57 57 WNW 3 6 30.42 1030 10 16.0934 0 0
3:35 am 03:35 Clear 21 -6 9 -12.8 59 59 W 3 6 30.42 1030 10 16.0934 0 0
3:55 am 03:55 Clear 21 -6 9 -12.8 59 59 WNW 5 7 30.42 1030 10 16.0934 0 0
4:15 am 04:15 Clear 21 -6.3 9 -12.8 60 60 WNW 5 7 30.43 1030 10 16.0934 0 0
4:35 am 04:35 Clear 18 -7.7 8 -13.4 64 64 Calm 30.44 1031 10 16.0934 0 0
4:55 am 04:55 Partly Cloudy 19 -7.5 10 -12.5 68 68 W 8 13 30.44 1031 10 16.0934 0 0
5:15 am 05:15 Cloudy 23 -5.1 12 -11.2 63 63 W 7 11 30.43 1030 10 16.0934 0 0
5:35 am 05:35 Cloudy 23 -5.1 12 -11 64 64 W 7 11 30.42 1030 10 16.0934 0 0
5:55 am 05:55 Cloudy 24 -4.5 12 -11 61 61 W 8 13 30.41 1030 10 16.0934 0 0
6:15 am 06:15 Cloudy 25 -3.7 12 -11.1 57 57 W 7 11 30.4 1030 10 16.0934 0 0
6:35 am 06:35 Cloudy 26 -3.1 12 -11 55 55 W 7 11 30.4 1029 10 16.0934 0 0
6:55 am 06:55 Cloudy 27 -2.8 12 -11.1 53 53 Calm 30.39 1029 10 16.0934 0 0
7:15 am 07:15 Cloudy 27 -2.9 13 -10.7 55 55 WSW 8 13 30.39 1029 10 16.0934 0 0
7:35 am 07:35 Cloudy 26 -3.1 13 -10.7 56 56 W 5 7 30.4 1029 10 16.0934 0 0
7:55 am 07:55 Cloudy 26 -3.5 13 -10.5 59 59 W 5 7 30.41 1030 10 16.0934 0 0
8:15 am 08:15 Cloudy 27 -2.9 13 -10.4 57 57 WSW 5 7 30.4 1030 10 16.0934 0 0
8:35 am 08:35 Cloudy 28 -2.3 13 -10.6 53 53 WSW 3 6 30.39 1029 10 16.0934 0 0
8:55 am 08:55 Cloudy 29 -1.6 13 -10.3 52 52 W 7 11 30.38 1029 10 16.0934 0 0
9:15 am 09:15 Cloudy 32 -0.2 13 -10.5 46 46 W 5 7 30.36 1028 10 16.0934 0 0
9:35 am 09:35 Cloudy 33 0.6 13 -10.3 44 44 WSW 7 11 30.35 1028 10 16.0934 0 0
9:55 am 09:55 Cloudy 34 1.3 16 -8.8 47 47 WSW 9 15 30.33 1027 10 16.0934 0 0
10:15 am 10:15 Cloudy 35 1.8 17 -8.3 47 47 WSW 8 13 30.31 1026 10 16.0934 0 0
10:35 am 10:35 Cloudy 37 3 15 -9.2 41 41 W 9 15 30.3 1026 10 16.0934 0 0
10:55 am 10:55 Cloudy 38 3.5 16 -9 40 40 SW 8 13 30.28 1025 10 16.0934 0 0
11:15 am 11:15 Mostly Cloudy 40 4.4 15 -9.4 36 36 WSW 14 22 30.26 1025 10 16.0934 0 0
11:35 am 11:35 Mostly Cloudy 41 5.1 14 -9.8 33 33 WSW 17 28 30.25 1024 10 16.0934 0 0
11:55 am 11:55 Mostly Cloudy 40 4.5 14 -9.8 35 35 WSW 17 28 30.25 1024 10 16.0934 0 0
12:15 pm 12:15 Cloudy 42 5.6 13 -10.6 30 30 W 24 39 30.22 1023 10 16.0934 0 0
12:35 pm 12:35 Cloudy 43 6.2 15 -9.3 32 32 W 21 33 30.2 1023 10 16.0934 0 0
12:55 pm 12:55 Cloudy 43 6.3 14 -10.1 30 30 WSW 21 33 30.19 1022 10 16.0934 0 0
1:15 pm 13:15 Cloudy 44 6.5 10 -12 26 26 WSW 18 30 30.16 1021 10 16.0934 0 0
1:35 pm 13:35 Cloudy 45 7.3 12 -10.9 26 26 W 26 43 30.15 1021 10 16.0934 0 0
1:55 pm 13:55 Cloudy 46 7.6 12 -11 26 26 W 23 37 30.12 1020 10 16.0934 0 0
2:15 pm 14:15 Cloudy 46 7.7 12 -11.2 25 25 W 20 31 30.11 1020 10 16.0934 0 0
2:35 pm 14:35 Cloudy 48 8.8 10 -12 22 22 W 14 22 30.09 1019 10 16.0934 0 0
2:55 pm 14:55 Mostly Cloudy 47 8.6 8 -13.1 20 20 WSW 18 30 30.08 1018 10 16.0934 0 0
3:15 pm 15:15 Mostly Cloudy 50 9.8 8 -13.5 18 18 W 24 39 30.05 1018 10 16.0934 0 0
3:35 pm 15:35 Cloudy 50 9.8 7 -13.9 17 17 W 18 30 30.04 1017 10 16.0934 0 0
3:55 pm 15:55 Cloudy 51 10.5 7 -13.7 17 17 W 16 26 30.02 1017 10 16.0934 0 0
4:15 pm 16:15 Mostly Cloudy 50 9.9 7 -13.8 17 17 W 25 41 30 1016 10 16.0934 0 0
4:35 pm 16:35 Mostly Cloudy 51 10.3 8 -13.3 18 18 W 25 41 30 1016 10 16.0934 0 0
4:55 pm 16:55 Mostly Cloudy 52 11.1 9 -12.7 18 18 W 22 35 29.98 1015 10 16.0934 0 0
5:15 pm 17:15 Mostly Cloudy 49 9.5 9 -12.7 20 20 W 20 31 30 1016 10 16.0934 0 0
5:35 pm 17:35 Mostly Cloudy 49 9.6 9 -12.8 19 19 W 16 26 29.99 1015 10 16.0934 0 0
5:55 pm 17:55 Mostly Cloudy 51 10.5 9 -12.6 18 18 W 18 30 29.98 1015 10 16.0934 0 0
6:15 pm 18:15 Mostly Cloudy 50 9.8 9 -13 19 19 WNW 12 19 29.98 1015 10 16.0934 0 0
6:35 pm 18:35 Mostly Cloudy 50 10.2 8 -13.5 18 18 WNW 20 31 29.97 1015 10 16.0934 0 0
6:55 pm 18:55 Mostly Cloudy 50 9.9 9 -12.8 19 19 WNW 17 28 29.98 1015 10 16.0934 0 0
7:15 pm 19:15 Partly Cloudy 49 9.6 11 -11.5 21 21 NW 15 24 29.99 1015 10 16.0934 0 0
7:35 pm 19:35 Partly Cloudy 48 8.8 13 -10.3 25 25 NW 16 26 30 1016 10 16.0934 0 0
7:55 pm 19:55 Cloudy 46 8 14 -9.8 27 27 NW 14 22 30.01 1016 10 16.0934 0 0
8:15 pm 20:15 Cloudy 46 7.7 16 -9.1 30 30 NW 13 20 30.01 1016 10 16.0934 0 0
8:35 pm 20:35 Cloudy 45 7 17 -8.4 33 33 NW 10 17 30.03 1017 10 16.0934 0 0
8:55 pm 20:55 Partly Cloudy 43 6.2 18 -7.7 37 37 NNW 9 15 30.05 1018 10 16.0934 0 0
9:15 pm 21:15 Clear 40 4.6 19 -7.5 41 41 NNW 6 9 30.06 1018 10 16.0934 0 0
9:35 pm 21:35 Clear 39 4 20 -6.7 46 46 NNW 10 17 30.08 1019 10 16.0934 0 0
9:55 pm 21:55 Mostly Cloudy 38 3.6 20 -6.6 48 48 NNW 8 13 30.1 1019 10 16.0934 0 0
10:15 pm 22:15 Mostly Cloudy 38 3.6 21 -6 50 50 NNW 7 11 30.11 1020 10 16.0934 0 0
10:35 pm 22:35 Partly Cloudy 38 3.1 23 -5.2 55 55 NNW 9 15 30.12 1020 10 16.0934 0 0
10:55 pm 22:55 Clear 37 2.5 24 -4.7 59 59 N 9 15 30.13 1020 10 16.0934 0 0
11:15 pm 23:15 Partly Cloudy 35 1.8 25 -4 66 66 N 8 13 30.14 1021 10 16.0934 0 0
11:35 pm 23:35 Partly Cloudy 35 1.7 26 -3.3 70 70 N 10 17 30.15 1021 10 16.0934 0 0
11:55 pm 23:55 Mostly Cloudy 34 1 27 -2.6 77 77 NNE 17 28 30.16 1021 10 16.0934 0 0

Powered by AerisWeather